User: anonymous   Login
Location: Napier
(39.4830°S, 176.9170°E)
Time: 13:31:25
(UTC+13:00)
Language:

Resurs 01 Rocket - Orbit

View from above orbital plane
View from above orbital plane
View from above satellite
View from above satellite

Ground track
Ground track

The orbit data is extracted from the following two-line orbital elements,

1 23343U 94074B   19295.80978806 -.00000002  00000-0  70440-5 0  9994
2 23343  98.0371 345.4198 0006632 187.5622 222.5234 14.76794915343404
Epoch (UTC): 22 October 2019 19:26:05
Eccentricity: 0.0006632
inclination: 98.0371°
perigee height: 635 km
apogee height: 644 km
right ascension of ascending node: 345.4198°
argument of perigee: 187.5622°
revolutions per day: 14.76794915
mean anomaly at epoch: 222.5234°
orbit number at epoch: 34340

The dashed part of the orbit path shows where the satellite is in the earth's shadow,  

DLR